Flag for Russia Weather past 2 weeks in Kazan, Russia

25 °F


Feels Like: 11 °F
Forecast: 17 / 29 °F
Wind: 17 mph from West

Location: Kazan'

Current Time: Nov 28, 2015 at 6:07:31 AM

Latest Report: Nov 28, 2015 at 5:30 AM

Visibility: N/A

Pressure: 29.86 "Hg

Humidity: 86%

Dew point: 21 °F

Location of KazanLocation

Historic Weather in Kazan — Graph


Kazan temperature yesterday

Maximum temperature yesterday: 25 °F (at 12:00 AM)
Minimum temperature yesterday: 18 °F (at 4:30 PM)
Average temperature yesterday: 22 °F

Past Weeks' High & Low Weather Summary

High48 °F (Nov 23, 10:30 AM)100% (Nov 13, 5:00 AM)30.24 "Hg (Nov 13, 5:00 AM)
Low14 °F (Nov 14, 9:30 PM)69% (Nov 24, 12:00 PM)29.39 "Hg (Nov 21, 1:00 PM)
Average27 °F92%29.95 "Hg
* Reported Nov 13 5:00 AM — Nov 28 5:00 AM, Kazan, Weather by CustomWeather, © 2015

Note: Actual official high and low records may vary slightly from our data, if they occured in-between our weather recording intervals... More about our weather records


Kazan weather history for previous 24 hours

Time TempWeatherWind HumidityBarometerVisibility
5:00 AM
Sat, Nov 28
25 °FOvercast.17 mph86%29.86 "HgN/A
4:30 AM25 °FOvercast.15 mph86%29.86 "HgN/A
2:30 AM23 °FClear.17 mph86%29.86 "Hg10 mi
2:00 AM23 °FClear.17 mph86%29.86 "Hg10 mi
1:30 AM23 °FPassing clouds.13 mph86%29.86 "HgN/A
1:00 AM23 °FClear.15 mph86%29.86 "Hg10 mi
12:30 AM23 °FClear.17 mph86%29.86 "Hg10 mi
12:00 AM23 °FClear.17 mph86%29.86 "Hg10 mi
11:30 PM
Fri, Nov 27
21 °FClear.17 mph86%29.86 "Hg10 mi
11:00 PM19 °FClear.10 mph93%29.86 "Hg10 mi
10:30 PM21 °FClear.10 mph86%29.86 "Hg10 mi
10:00 PM21 °FClear.13 mph86%29.86 "Hg10 mi
9:30 PM19 °FClear.10 mph93%29.86 "Hg10 mi
9:00 PM18 °FPassing clouds.13 mph93%29.86 "HgN/A
8:30 PM19 °FClear.10 mph93%29.86 "Hg10 mi
8:00 PM21 °FLow clouds.13 mph86%29.89 "HgN/A
7:30 PM19 °FLow clouds.10 mph93%29.89 "HgN/A
7:00 PM19 °FLow clouds.13 mph93%29.89 "HgN/A
6:30 PM19 °FLow clouds.10 mph86%29.86 "HgN/A
6:00 PM19 °FLow clouds.13 mph86%29.86 "HgN/A
5:30 PM19 °FLow clouds.10 mph86%29.86 "HgN/A
5:00 PM18 °FLow clouds.15 mph93%29.83 "HgN/A
4:30 PM18 °FLight snow. Low clouds.17 mph93%29.86 "Hg6 mi
4:00 PM19 °FPartly sunny.13 mph93%29.83 "HgN/A
3:30 PM21 °FPartly sunny.13 mph86%29.83 "HgN/A
3:00 PM23 °FLow level haze.13 mph86%29.83 "HgN/A
2:30 PM25 °FLow level haze.10 mph80%29.83 "HgN/A
2:00 PM25 °FLow level haze.13 mph74%29.80 "HgN/A
1:30 PM25 °FLow level haze.10 mph74%29.80 "HgN/A
1:00 PM23 °FLow level haze.13 mph80%29.80 "HgN/A
12:30 PM25 °FLow level haze.10 mph80%29.77 "HgN/A
12:00 PM25 °FLight snow. Low level haze.10 mph80%29.77 "HgN/A
11:30 AM23 °FLight snow. Overcast.10 mph86%29.77 "HgN/A
11:00 AM23 °FLight snow. Overcast.10 mph86%29.77 "HgN/A
9:30 AM23 °FLight snow. Overcast.10 mph93%29.74 "Hg1 mi
9:00 AM21 °FLight snow. Overcast.10 mph100%29.74 "Hg1 mi
8:30 AM23 °FSnow. Overcast.10 mph93%29.74 "Hg1 mi
8:00 AM23 °FLight snow. Overcast.15 mph86%29.74 "Hg2 mi
7:00 AM23 °FLight snow. Overcast.15 mph93%29.71 "Hg3 mi
6:30 AM23 °FSnow. Overcast.10 mph93%29.71 "Hg1 mi
6:00 AM23 °FLight snow. Overcast.10 mph93%29.71 "Hg1 mi
Weather by CustomWeather, © 2015

See weather overviewHow to use our weather pages